Covington, KY

5:38 PM EST on February 19, 2018 (GMT -0500)
Cincinnati-Northern KY International

Weather History for KCVG - October, 2011

Change the Weather History Date:

Saturday, October 29, 2011

  Actual Average Record
Temperature  
Mean Temperature 42 °F 52 °F  
Max Temperature 56 °F 62 °F 83 °F (1927)
Min Temperature 28 °F 42 °F 20 °F (1925)
Degree Days  
Heating Degree Days 23 14  
Month to date heating degree days 274 276  
Since 1 July heating degree days 357 334  
Cooling Degree Days 0 0  
Month to date cooling degree days 15 16  
Year to date cooling degree days 1348 1121  
Moisture  
Dew Point 31 °F    
Average Humidity 69    
Maximum Humidity 100    
Minimum Humidity 38    
Precipitation  
Precipitation 0.00 in 0.11 in 1.84 in (1883)
Month to date precipitation 4.00 3.08  
Year to date precipitation 58.41 35.50  
Snow  
Snow 0.00 in 0.10 in 0.00 in ()
Month to date snowfall 0.0 0.4  
Since 1 July snowfall 0.0 0.4  
Since 1 September snowfall 0.0 0.4  
Snow Depth 0.00 in    
Sea Level Pressure  
Sea Level Pressure 30.10 in    
Wind  
Wind Speed 5 mph (WSW)    
Max Wind Speed 17 mph    
Max Gust Speed 26 mph    
Visibility 8 miles    
Events Fog    
T = Trace of Precipitation, MM = Missing Value Source: NWS Daily Summary

Daily Weather History Graph

Daily Weather History Graph

Search for Another Location

Airport or City:

Trip Planner

Search our weather history database for the weather conditions in past years. The results will help you decide how hot, cold, wet, or windy it might be!

Date:

Astronomy

Oct. 29, 2011 Rise Set
Actual Time 8:02 AM EDT 6:41 PM EDT
Civil Twilight 7:35 AM EDT 7:09 PM EDT
Nautical Twilight 7:03 AM EDT 7:40 PM EDT
Astronomical Twilight 6:32 AM EDT 8:11 PM EDT
Moon 11:21 AM EDT (10/29) 9:05 PM EDT (10/29)
Length of Visible Light 11h 34m
Length of Day
10h 39m
Waxing Crescent, 11% of the Moon is Illuminated
Oct 29
Waxing Crescent
Nov 2
First Quarter
Nov 10
Full
Nov 18
Last Quarter
Nov 25
New

Hourly Weather History & Observations

Time (EDT) Temp. Windchill Dew Point Humidity Pressure Visibility Wind Dir Wind Speed Gust Speed Precip Events Conditions
12:52 AM 33.1 °F 28.7 °F 30.9 °F 92% 30.11 in 8.0 mi WNW 4.6 mph - N/A   Clear
1:52 AM 32.0 °F - 30.2 °F 93% 30.09 in 6.0 mi Calm Calm - N/A   Clear
2:43 AM 30.2 °F - 28.4 °F 93% 30.08 in 0.8 mi Calm Calm - N/A   Mist
2:52 AM 30.0 °F - 28.9 °F 96% 30.10 in 0.2 mi Calm Calm - N/A Fog Light Freezing Fog
3:03 AM 28.4 °F - 28.4 °F 100% 30.08 in 7.0 mi Calm Calm - N/A   Clear
4:52 AM 32.0 °F 28.7 °F 30.0 °F 92% 30.09 in 5.0 mi West 3.5 mph - N/A   Clear
5:40 AM 30.2 °F - 28.4 °F 93% 30.08 in 5.0 mi Calm Calm - N/A   Partly Cloudy
5:52 AM 28.9 °F - 28.0 °F 96% 30.10 in 5.0 mi Calm Calm - N/A   Clear
6:52 AM 30.0 °F 25.2 °F 28.9 °F 96% 30.10 in 5.0 mi SSW 4.6 mph - N/A   Overcast
7:52 AM 30.9 °F 27.5 °F 30.0 °F 96% 30.10 in 5.0 mi SSW 3.5 mph - N/A   Scattered Clouds
8:52 AM 30.0 °F 26.5 °F 30.0 °F 100% 30.11 in 5.0 mi South 3.5 mph - N/A   Clear
9:52 AM 37.9 °F 33.5 °F 35.1 °F 89% 30.13 in 9.0 mi SSW 5.8 mph 23.0 mph N/A   Clear
10:52 AM 43.0 °F 38.8 °F 35.1 °F 74% 30.12 in 10.0 mi SW 6.9 mph - N/A   Partly Cloudy
11:52 AM 46.9 °F - 37.0 °F 68% 30.11 in 10.0 mi SW 8.1 mph - N/A   Scattered Clouds
12:52 PM 50.0 °F - 37.9 °F 63% 30.11 in 10.0 mi WSW 8.1 mph - N/A   Mostly Cloudy
1:52 PM 54.0 °F - 36.0 °F 51% 30.09 in 10.0 mi Variable 6.9 mph - N/A   Scattered Clouds
2:52 PM 53.1 °F - 32.0 °F 45% 30.07 in 10.0 mi West 9.2 mph - N/A   Scattered Clouds
3:52 PM 55.9 °F - 32.0 °F 40% 30.06 in 10.0 mi West 12.7 mph 23.0 mph N/A   Mostly Cloudy
4:52 PM 52.0 °F - 28.9 °F 41% 30.07 in 10.0 mi NW 10.4 mph - N/A   Mostly Cloudy
5:52 PM 53.1 °F - 28.0 °F 38% 30.08 in 10.0 mi WNW 8.1 mph - N/A   Scattered Clouds
6:52 PM 48.9 °F - 28.0 °F 44% 30.08 in 10.0 mi WNW 3.5 mph - N/A   Scattered Clouds
7:52 PM 46.0 °F 44.8 °F 27.0 °F 47% 30.10 in 10.0 mi WSW 3.5 mph - N/A   Mostly Cloudy
8:52 PM 42.1 °F - 30.9 °F 65% 30.13 in 10.0 mi Calm Calm - N/A   Mostly Cloudy
9:52 PM 42.1 °F 39.2 °F 28.0 °F 58% 30.12 in 10.0 mi West 4.6 mph - N/A   Scattered Clouds
10:52 PM 41.0 °F 37.1 °F 27.0 °F 57% 30.14 in 10.0 mi NNW 5.8 mph - N/A   Partly Cloudy
11:52 PM 37.9 °F - 28.9 °F 70% 30.15 in 10.0 mi Calm Calm - N/A   Clear